Flag Weather past 2 weeks in Melhus, Norway

Now
34 °F

Passing clouds.


Feels Like: 30 °F
Forecast: 32 / 38 °F
Wind: 5 mph from Northeast

Location: Trondheim / Vaernes

Current Time: Nov 26, 2014 at 5:40:36 PM

Latest Report: Nov 26, 2014 at 4:50 PM


Visibility: N/A

Pressure: 30.18 "Hg

Humidity: 81%

Dew point: 28 °F

Location of MelhusLocation

Historic Weather in Melhus — Graph

°F

Melhus temperature yesterday

Maximum temperature yesterday: 46 °F (at 11:50 AM)
Minimum temperature yesterday: 39 °F (at 10:20 AM)
Average temperature yesterday: 43 °F

Past Weeks' High & Low Weather Summary

 TemperatureHumidityPressure
High48 °F (Nov 14, 7:20 AM)100% (Nov 12, 3:50 AM)30.48 "Hg (Nov 12, 3:50 AM)
Low19 °F (Nov 22, 6:50 AM)53% (Nov 13, 12:50 PM)29.68 "Hg (Nov 24, 4:50 AM)
Average37 °F75%30.18 "Hg
* Reported Nov 11 4:20 PM — Nov 26 4:20 PM, Melhus, Weather by CustomWeather, © 2014

Note: Actual official high and low records may vary slightly from our data, if they occured in-between our weather recording intervals... More about our weather records

Advertising

Melhus weather history for previous 24 hours

 ConditionsComfort  
Time TempWeatherWind HumidityBarometerVisibility
4:20 PM
Nov 26
34 °FClear.10 mph81%30.18 "Hg10 mi
3:50 PM34 °FClear.9 mph81%30.18 "Hg10 mi
3:20 PM34 °FClear.8 mph87%30.21 "Hg10 mi
2:50 PM34 °FPassing clouds.3 mph87%30.21 "HgN/A
2:20 PM34 °FPassing clouds.7 mph87%30.21 "HgN/A
1:50 PM34 °FSunny.7 mph87%30.24 "Hg10 mi
1:20 PM34 °FSunny.10 mph93%30.24 "Hg10 mi
12:50 PM34 °FSunny.8 mph93%30.24 "Hg10 mi
12:20 PM34 °FSunny.8 mph93%30.24 "Hg10 mi
11:50 AM34 °FPassing clouds.3 mph93%30.24 "HgN/A
11:20 AM32 °FSunny.2 mph93%30.27 "Hg10 mi
10:50 AM32 °FSunny.3 mph93%30.27 "Hg10 mi
10:20 AM30 °FSunny.5 mph100%30.27 "Hg10 mi
9:50 AM30 °FSunny.8 mph100%30.27 "Hg10 mi
9:20 AM32 °FPassing clouds.7 mph93%30.27 "HgN/A
8:50 AM32 °FClear.6 mph100%30.30 "Hg10 mi
8:20 AM32 °FPassing clouds.8 mph93%30.27 "HgN/A
7:50 AM32 °FPassing clouds.8 mph93%30.27 "HgN/A
7:20 AM34 °FClear.7 mph93%30.27 "Hg10 mi
6:50 AM34 °FClear.8 mph93%30.27 "Hg10 mi
6:20 AM34 °FPassing clouds.8 mph93%30.27 "HgN/A
5:50 AM34 °FPassing clouds.9 mph93%30.27 "HgN/A
5:20 AM36 °FPassing clouds.8 mph93%30.27 "HgN/A
4:50 AM34 °FPassing clouds.6 mph100%30.27 "HgN/A
3:50 AM34 °FPassing clouds.6 mph100%30.27 "HgN/A
2:50 AM36 °FPassing clouds.6 mph93%30.27 "HgN/A
1:50 AM37 °FPassing clouds.6 mph93%30.27 "HgN/A
1:20 AM37 °FPassing clouds.5 mph93%30.27 "HgN/A
12:50 AM39 °FLight rain. Partly cloudy.5 mph87%30.27 "HgN/A
11:50 PM
Nov 25
41 °FPassing clouds.2 mph81%30.27 "HgN/A
11:20 PM41 °FPassing clouds.5 mph81%30.24 "HgN/A
10:50 PM41 °FPassing clouds.13 mph81%30.24 "HgN/A
10:20 PM43 °FPassing clouds.10 mph76%30.24 "HgN/A
9:50 PM41 °FPartly cloudy.10 mph81%30.24 "HgN/A
9:20 PM43 °FLight rain. Passing clouds.12 mph76%30.24 "HgN/A
8:50 PM43 °FPassing clouds.14 mph71%30.21 "HgN/A
8:20 PM43 °FPassing clouds.16 mph76%30.21 "HgN/A
7:50 PM43 °FPassing clouds.15 mph76%30.21 "HgN/A
7:20 PM43 °FLight rain. Passing clouds.16 mph71%30.18 "HgN/A
6:50 PM43 °FPassing clouds.18 mph71%30.18 "HgN/A
6:20 PM43 °FPassing clouds.17 mph71%30.15 "HgN/A
5:50 PM43 °FPassing clouds.13 mph71%30.15 "HgN/A
5:20 PM45 °FPassing clouds.15 mph66%30.15 "HgN/A
Weather by CustomWeather, © 2014

See weather overviewHow to use our weather pages